QPF
0.00 0.00 0.00 0.00 0.00 0.00 0.00 0.00 0.00 0.00 0.00 0.00 0.00 0.00 0.00 0.00 0.00 0.00 0.00 0.00 0.00 0.00 0.00 0.00 0.00 0.00 0.00 0.00 0.00 0.00 0.00 0.00 0.00 0.00 0.00 0.00 0.00 0.00 0.00 0.00 0.00 0.00
0.00 0.00 0.00 0.00 0.00 0.00 0.00 0.00 0.00 0.00 0.00 0.00 0.00 0.00 0.00 0.00 0.00 0.00 0.00 0.00 0.00 0.00 0.00 0.00 0.00 0.00 0.00 0.00 0.00 0.00 0.00 0.00 0.00 0.00 0.00 0.00 0.00 0.00 0.00 0.00 0.00 0.00
0.00 0.00 0.00 0.00 0.00 0.00 0.00 0.00 0.00 0.00 0.00 0.00 0.00 0.00 0.00 0.00 0.00 0.00 0.00 0.00 0.00 0.00 0.00 0.00 0.00 0.00 0.00 0.00 0.00 0.00 0.00 0.00 0.00 0.00 0.00 0.00 0.00 0.00 0.00 0.00 0.00 0.00
0.00 0.00 0.00 0.00 0.00 0.00 0.00 0.00 0.00 0.00 0.00 0.00 0.00 0.00 0.00 0.00 0.00 0.00 0.00 0.00 0.00 0.00 0.00 0.00 0.00 0.00 0.00 0.00 0.00 0.00 0.00 0.00 0.00 0.00 0.00 0.00 0.00 0.00 0.00 0.00 0.00 0.00
0.00 0.00 0.00 0.00 0.00 0.00 0.00 0.00 0.00 0.00 0.00 0.00 0.00 0.00 0.00 0.00 0.00 0.00 0.00 0.00 0.00 0.00 0.00 0.00 0.00 0.00 0.00 0.00 0.00 0.00 0.00 0.00 0.00 0.00 0.00 0.00 0.00 0.00 0.00 0.00 0.00 0.00
0.00 0.00 0.00 0.00 0.00 0.00 0.00 0.00 0.00 0.00 0.00 0.00 0.00 0.00 0.00 0.00 0.00 0.00 0.00 0.00 0.00 0.00 0.00 0.00 0.00 0.00 0.00 0.00 0.00 0.00 0.00 0.00 0.00 0.00 0.00 0.00 0.00 0.00 0.00 0.00 0.00 0.00
0.00 0.00 0.00 0.00 0.00 0.00 0.00 0.00 0.00 0.00 0.00 0.00 0.00 0.00 0.00 0.00 0.00 0.00 0.00 0.00 0.00 0.00 0.00 0.00 0.00 0.00 0.00 0.00 0.00 0.00 0.00 0.00 0.00 0.00 0.00 0.00 0.00 0.00 0.00 0.00 0.00 0.00
0.00 0.00 0.00 0.00 0.00 0.00 0.00 0.00 0.00 0.00 0.00 0.00 0.00 0.00 0.00 0.00 0.00 0.00 0.00 0.00 0.00 0.00 0.00 0.00 0.00 0.00 0.00 0.00 0.00 0.00 0.00 0.00 0.00 0.00 0.00 0.00 0.00 0.00 0.00 0.00 0.00 0.00
0.00 0.00 0.00 0.00 0.00 0.00 0.00 0.00 0.00 0.00 0.00 0.00 0.00 0.00 0.00 0.00 0.00 0.00 0.00 0.00 0.00 0.00 0.00 0.00 0.00 0.00 0.00 0.00 0.00 0.00 0.00 0.00 0.00 0.00 0.00 0.00 0.00 0.00 0.00 0.00 0.00 0.00
0.00 0.00 0.00 0.00 0.00 0.00 0.00 0.00 0.00 0.00 0.00 0.00 0.00 0.00 0.00 0.00 0.00 0.00 0.00 0.00 0.00 0.00 0.00 0.00 0.00 0.00 0.00 0.00 0.00 0.00 0.00 0.00 0.00 0.00 0.00 0.00 0.00 0.00 0.00 0.00 0.00 0.00
0.00 0.00 0.00 0.00 0.00 0.00 0.00 0.00 0.00 0.00 0.00 0.00 0.00 0.00 0.00 0.00 0.00 0.00 0.00 0.00 0.00 0.00 0.00 0.00 0.00 0.00 0.00 0.00 0.00 0.00 0.00 0.00 0.00 0.00 0.00 0.00 0.00 0.00 0.00 0.00 0.00 0.00
0.00 0.00 0.00 0.00 0.00 0.00 0.00 0.00 0.00 0.00 0.00 0.00 0.00 0.00 0.00 0.00 0.00 0.00 0.00 0.00 0.00 0.00 0.00 0.00 0.00 0.00 0.00 0.00 0.00 0.00 0.00 0.00 0.00 0.00 0.00 0.00 0.00 0.00 0.00 0.00 0.00 0.00
0.00 0.00 0.00 0.00 0.00 0.00 0.00 0.00 0.00 0.00 0.00 0.00 0.00 0.00 0.00 0.00 0.00 0.00 0.00 0.00 0.00 0.00 0.00 0.00 0.00 0.00 0.00 0.00 0.00 0.00 0.00 0.00 0.00 0.00 0.00 0.00 0.00 0.00 0.00 0.00 0.00 0.00
0.00 0.00 0.00 0.00 0.00 0.00 0.00 0.00 0.00 0.00 0.00 0.00 0.00 0.00 0.00 0.00 0.00 0.00 0.00 0.00 0.00 0.00 0.00 0.00 0.00 0.00 0.00 0.00 0.00 0.00 0.00 0.00 0.00 0.00 0.00 0.00 0.00 0.00 0.00 0.00 0.00 0.00
0.00 0.00 0.00 0.00 0.00 0.00 0.00 0.00 0.00 0.00 0.00 0.00 0.00 0.00 0.00 0.00 0.00 0.00 0.00 0.00 0.00 0.00 0.00 0.00 0.00 0.00 0.00 0.00 0.00 0.00 0.00 0.00 0.00 0.00 0.00 0.00 0.00 0.00 0.00 0.00 0.00 0.00
0.00 0.00 0.00 0.00 0.00 0.00 0.00 0.00 0.00 0.00 0.00 0.00 0.00 0.00 0.00 0.00 0.00 0.00 0.00 0.00 0.00 0.00 0.00 0.00 0.00 0.00 0.00 0.00 0.00 0.00 0.00 0.00 0.00 0.00 0.00 0.00 0.00 0.00 0.00 0.00 0.01 0.00
0.00 0.00 0.00 0.00 0.00 0.00 0.00 0.00 0.00 0.00 0.00 0.00 0.00 0.00 0.00 0.00 0.00 0.00 0.00 0.00 0.00 0.00 0.00 0.00 0.00 0.00 0.00 0.00 0.00 0.00 0.00 0.00 0.00 0.00 0.00 0.00 0.00 0.00 0.00 0.00 0.00 0.02
0.00 0.00 0.00 0.00 0.00 0.00 0.00 0.00 0.00 0.00 0.00 0.00 0.00 0.00 0.00 0.00 0.00 0.00 0.00 0.00 0.00 0.00 0.00 0.00 0.00 0.00 0.00 0.00 0.00 0.00 0.00 0.00 0.00 0.00 0.00 0.00 0.01 0.03 0.01 0.00 0.01 0.00
0.00 0.00 0.00 0.00 0.00 0.00 0.00 0.00 0.00 0.00 0.00 0.00 0.00 0.00 0.00 0.00 0.00 0.00 0.00 0.00 0.00 0.00 0.00 0.00 0.00 0.00 0.00 0.00 0.00 0.00 0.00 0.00 0.00 0.00 0.02 0.01 0.08 0.18 0.17 0.05 0.03 0.04
0.00 0.00 0.00 0.00 0.00 0.00 0.00 0.00 0.00 0.00 0.00 0.00 0.00 0.00 0.00 0.00 0.00 0.00 0.00 0.00 0.00 0.00 0.00 0.00 0.00 0.00 0.00 0.00 0.00 0.00 0.00 0.00 0.01 0.01 0.01 0.00 0.00 0.00 0.02 0.01 0.01 0.00
0.00 0.00 0.00 0.00 0.00 0.00 0.00 0.00 0.00 0.00 0.00 0.00 0.00 0.00 0.00 0.00 0.00 0.00 0.00 0.00 0.00 0.00 0.00 0.00 0.00 0.00 0.00 0.00 0.00 0.00 0.00 0.00 0.00 0.00 0.00 0.00 0.01 0.01 0.04 0.01 0.02 0.01
0.00 0.00 0.00 0.00 0.00 0.00 0.00 0.00 0.00 0.00 0.00 0.00 0.00 0.00 0.00 0.00 0.00 0.00 0.00 0.00 0.00 0.00 0.00 0.00 0.00 0.00 0.00 0.00 0.00 0.00 0.00 0.01 0.01 0.01 0.01 0.01 0.00 0.03 0.02 0.03 0.03 0.03
0.00 0.00 0.00 0.00 0.00 0.00 0.00 0.00 0.00 0.00 0.00 0.00 0.00 0.00 0.00 0.00 0.00 0.00 0.00 0.00 0.00 0.00 0.00 0.00 0.00 0.00 0.00 0.00 0.00 0.00 0.00 0.00 0.01 0.01 0.00 0.00 0.00 0.01 0.02 0.02 0.01 0.02
0.00 0.00 0.00 0.00 0.00 0.00 0.00 0.00 0.00 0.00 0.00 0.00 0.00 0.00 0.00 0.00 0.00 0.00 0.00 0.00 0.00 0.00 0.00 0.00 0.00 0.00 0.00 0.00 0.00 0.00 0.00 0.00 0.00 0.01 0.00 0.00 0.00 0.00 0.01 0.00 0.05 0.03
0.00 0.00 0.00 0.00 0.00 0.00 0.00 0.00 0.00 0.00 0.00 0.00 0.00 0.00 0.00 0.00 0.00 0.00 0.00 0.00 0.00 0.00 0.00 0.00 0.00 0.00 0.00 0.00 0.00 0.00 0.00 0.00 0.00 0.00 0.00 0.00 0.00 0.00 0.02 0.02 0.07 0.06
0.00 0.00 0.00 0.00 0.00 0.00 0.00 0.00 0.00 0.00 0.00 0.00 0.00 0.00 0.00 0.00 0.00 0.00 0.00 0.00 0.00 0.00 0.00 0.00 0.00 0.00 0.00 0.00 0.00 0.00 0.00 0.00 0.00 0.00 0.00 0.00 0.00 0.00 0.00 0.02 0.01 0.03
MSLP
1010.34 1010.66 1011.06 1011.46 1011.82 1012.06 1012.46 1012.86 1012.98 1013.14 1013.14 1013.18 1013.46 1013.54 1013.70 1013.66 1013.90 1014.18 1014.42 1014.62 1014.78 1015.02 1015.30 1015.50 1015.66 1015.94 1016.14 1016.38 1016.54 1016.70 1016.90 1016.98 1017.06 1017.14 1017.34 1017.46 1017.58 1017.58 1017.74 1017.82 1017.94 1017.98
1009.94 1010.18 1010.50 1010.86 1011.30 1011.54 1011.86 1012.14 1012.46 1012.62 1012.70 1012.74 1012.82 1012.98 1013.18 1013.42 1013.62 1013.82 1014.14 1014.42 1014.58 1014.82 1015.02 1015.26 1015.50 1015.70 1015.98 1016.22 1016.42 1016.66 1016.82 1016.90 1017.02 1016.94 1017.22 1017.38 1017.42 1017.46 1017.54 1017.62 1017.78 1017.82
1009.46 1009.90 1010.22 1010.62 1010.86 1011.14 1011.38 1011.62 1011.94 1012.14 1012.30 1012.34 1012.42 1012.66 1012.94 1013.06 1013.38 1013.54 1013.74 1014.02 1014.38 1014.62 1014.86 1015.06 1015.30 1015.54 1015.78 1016.02 1016.22 1016.46 1016.62 1016.78 1016.90 1016.86 1017.06 1017.22 1017.30 1017.42 1017.34 1017.42 1017.66 1017.78
1009.02 1009.22 1009.58 1009.94 1010.26 1010.62 1010.86 1011.26 1011.58 1011.78 1011.98 1012.26 1012.38 1012.38 1012.54 1012.78 1013.02 1013.34 1013.54 1013.74 1014.14 1014.42 1014.62 1014.90 1015.10 1015.30 1015.58 1015.82 1016.06 1016.30 1016.34 1016.46 1016.50 1016.70 1016.98 1017.10 1017.18 1017.22 1017.26 1017.34 1017.54 1017.78
1008.50 1008.86 1009.10 1009.42 1009.74 1010.06 1010.42 1010.82 1011.10 1011.34 1011.62 1011.70 1011.94 1012.14 1012.38 1012.62 1012.90 1013.14 1013.38 1013.62 1013.86 1014.18 1014.46 1014.74 1014.94 1015.14 1015.34 1015.62 1015.86 1016.14 1016.22 1016.38 1016.46 1016.66 1016.90 1017.06 1017.06 1017.18 1017.18 1017.34 1017.58 1017.82
1008.06 1008.26 1008.54 1008.94 1009.26 1009.66 1010.06 1010.30 1010.46 1010.78 1011.14 1011.54 1011.66 1011.74 1011.98 1012.18 1012.54 1012.82 1013.06 1013.38 1013.62 1013.90 1014.26 1014.58 1014.82 1014.94 1015.10 1015.38 1015.70 1015.86 1016.02 1016.30 1016.42 1016.66 1016.90 1016.98 1017.06 1017.06 1017.10 1017.30 1017.54 1017.74
1007.70 1008.06 1008.42 1008.66 1009.06 1009.26 1009.58 1009.74 1009.94 1010.22 1010.58 1010.82 1011.22 1011.54 1011.70 1012.06 1012.26 1012.46 1012.74 1013.02 1013.34 1013.66 1013.98 1014.34 1014.62 1014.82 1014.90 1015.18 1015.50 1015.78 1015.94 1016.10 1016.34 1016.62 1016.78 1016.86 1016.94 1017.02 1017.02 1017.18 1017.42 1017.58
1007.38 1007.62 1007.98 1008.34 1008.74 1008.98 1009.22 1009.34 1009.54 1009.78 1010.02 1010.54 1010.98 1011.10 1011.34 1011.66 1011.90 1012.14 1012.42 1012.74 1013.10 1013.38 1013.66 1013.94 1014.18 1014.42 1014.70 1015.02 1015.42 1015.78 1015.98 1016.02 1016.18 1016.38 1016.54 1016.66 1016.74 1016.86 1016.98 1017.14 1017.34 1017.58
1006.98 1007.34 1007.62 1008.02 1008.38 1008.58 1008.82 1008.86 1009.02 1009.26 1009.58 1010.14 1010.50 1010.82 1011.06 1011.30 1011.58 1011.86 1012.18 1012.50 1012.86 1013.10 1013.42 1013.66 1013.86 1014.18 1014.46 1014.82 1015.18 1015.46 1015.66 1015.78 1015.82 1015.98 1016.22 1016.42 1016.58 1016.62 1016.82 1017.02 1017.30 1017.46
1006.58 1006.86 1007.34 1007.66 1008.02 1008.02 1008.30 1008.38 1008.54 1008.86 1009.14 1009.62 1010.02 1010.42 1010.90 1011.06 1011.30 1011.58 1011.94 1012.34 1012.62 1012.90 1013.14 1013.38 1013.66 1013.98 1014.26 1014.50 1014.78 1015.02 1015.26 1015.38 1015.50 1015.70 1015.82 1015.98 1016.14 1016.38 1016.62 1016.86 1017.02 1017.34
1006.26 1006.50 1006.86 1007.14 1007.38 1007.54 1007.78 1007.94 1008.22 1008.46 1008.78 1009.18 1009.66 1010.18 1010.46 1010.90 1011.22 1011.38 1011.78 1012.10 1012.38 1012.58 1012.86 1013.14 1013.38 1013.70 1014.02 1014.26 1014.42 1014.54 1014.74 1014.94 1015.18 1015.38 1015.54 1015.70 1015.82 1016.06 1016.26 1016.50 1016.78 1016.90
1005.74 1006.02 1006.30 1006.50 1006.78 1007.10 1007.34 1007.54 1007.78 1008.14 1008.42 1008.78 1009.18 1009.78 1010.18 1010.54 1010.94 1011.18 1011.42 1011.74 1011.94 1012.22 1012.50 1012.82 1013.14 1013.42 1013.66 1013.82 1014.02 1014.18 1014.42 1014.58 1014.78 1015.02 1015.22 1015.42 1015.62 1015.82 1015.98 1016.14 1016.38 1016.54
1005.22 1005.38 1005.58 1006.02 1006.30 1006.54 1006.86 1007.30 1007.58 1007.74 1008.10 1008.50 1008.74 1009.30 1009.86 1010.30 1010.54 1010.90 1011.06 1011.38 1011.66 1011.98 1012.26 1012.54 1012.86 1013.10 1013.30 1013.46 1013.66 1013.86 1014.06 1014.30 1014.54 1014.82 1015.02 1015.18 1015.30 1015.50 1015.62 1015.78 1015.90 1016.14
1004.42 1004.66 1005.10 1005.42 1005.78 1006.26 1006.70 1007.02 1007.30 1007.62 1007.86 1008.06 1008.54 1009.06 1009.38 1009.74 1010.14 1010.54 1010.82 1011.14 1011.42 1011.70 1011.90 1012.22 1012.54 1012.74 1012.86 1013.06 1013.30 1013.50 1013.78 1014.02 1014.30 1014.58 1014.78 1014.94 1015.06 1015.18 1015.30 1015.38 1015.58 1015.82
1003.82 1004.30 1004.62 1005.10 1005.58 1006.10 1006.50 1006.86 1007.14 1007.34 1007.62 1007.94 1008.26 1008.54 1008.86 1009.22 1009.62 1010.18 1010.74 1011.02 1011.18 1011.42 1011.70 1011.90 1012.14 1012.22 1012.34 1012.58 1012.98 1013.26 1013.50 1013.86 1014.10 1014.30 1014.46 1014.70 1014.86 1014.94 1015.02 1015.14 1015.34 1015.42
1003.42 1003.86 1004.34 1004.82 1005.46 1005.86 1006.10 1006.46 1006.86 1007.22 1007.58 1007.86 1007.98 1008.18 1008.54 1008.94 1009.38 1009.78 1010.22 1010.58 1010.94 1011.18 1011.34 1011.54 1011.58 1011.58 1011.70 1012.02 1012.30 1012.74 1013.18 1013.50 1013.78 1013.98 1014.14 1014.30 1014.54 1014.70 1014.82 1014.94 1015.06 1015.22
1003.06 1003.50 1003.94 1004.54 1004.82 1005.34 1005.82 1006.26 1006.66 1006.98 1007.38 1007.66 1007.90 1008.10 1008.38 1008.66 1009.02 1009.46 1009.74 1010.02 1010.38 1010.70 1010.98 1011.02 1011.06 1011.02 1011.26 1011.70 1012.06 1012.38 1012.74 1013.10 1013.42 1013.58 1013.70 1013.90 1014.06 1014.34 1014.62 1014.86 1015.02 1015.02
1002.46 1002.98 1003.58 1003.94 1004.38 1004.90 1005.34 1005.78 1006.30 1006.78 1007.22 1007.46 1007.74 1007.98 1008.10 1008.26 1008.62 1008.86 1009.14 1009.46 1009.78 1010.10 1010.38 1010.46 1010.46 1010.46 1010.90 1011.34 1011.74 1012.02 1012.22 1012.54 1012.82 1013.10 1013.30 1013.46 1013.62 1013.86 1014.18 1014.58 1014.86 1014.94
1002.06 1002.66 1003.06 1003.50 1003.86 1004.26 1004.86 1005.50 1006.06 1006.54 1006.86 1007.22 1007.42 1007.38 1007.66 1007.98 1008.02 1008.34 1008.66 1008.86 1009.22 1009.58 1009.82 1009.78 1009.94 1010.06 1010.58 1010.94 1011.30 1011.62 1011.86 1012.06 1012.30 1012.50 1012.74 1012.98 1013.26 1013.54 1014.06 1014.58 1014.66 1014.74
1001.70 1002.18 1002.62 1002.90 1003.34 1003.94 1004.58 1005.18 1005.66 1006.02 1006.18 1006.42 1006.78 1007.10 1007.26 1007.34 1007.54 1007.78 1008.02 1008.34 1008.58 1008.86 1009.06 1009.22 1009.42 1009.66 1010.10 1010.50 1010.86 1011.18 1011.42 1011.66 1011.78 1011.98 1012.22 1012.54 1012.86 1013.14 1013.46 1013.74 1014.02 1014.30
1001.26 1001.66 1002.06 1002.54 1003.06 1003.62 1004.18 1004.62 1004.98 1005.38 1005.74 1005.94 1006.14 1006.38 1006.54 1006.74 1006.94 1007.30 1007.46 1007.62 1007.86 1008.14 1008.54 1008.82 1008.90 1009.18 1009.66 1010.02 1010.42 1010.74 1010.98 1011.30 1011.38 1011.62 1011.98 1012.34 1012.62 1012.86 1013.10 1013.38 1013.50 1013.74
1000.58 1001.14 1001.62 1002.22 1002.78 1003.22 1003.66 1004.02 1004.30 1004.62 1004.98 1005.14 1005.46 1005.62 1005.74 1006.02 1006.30 1006.50 1006.82 1007.10 1007.34 1007.70 1008.10 1008.42 1008.42 1008.70 1009.10 1009.58 1009.98 1010.34 1010.62 1011.10 1011.26 1011.54 1011.90 1012.22 1012.42 1012.62 1012.78 1013.02 1013.30 1013.62
1000.26 1000.66 1001.22 1001.82 1002.30 1002.82 1003.14 1003.34 1003.66 1003.98 1004.22 1004.42 1004.94 1005.02 1005.30 1005.54 1005.70 1005.90 1006.10 1006.58 1006.90 1007.18 1007.58 1007.86 1008.06 1008.30 1008.66 1009.10 1009.54 1009.82 1010.50 1010.90 1011.18 1011.50 1011.78 1011.98 1012.14 1012.30 1012.50 1012.74 1012.98 1013.22
999.58 1000.22 1000.82 1001.30 1001.78 1002.14 1002.34 1002.58 1002.78 1003.02 1003.34 1003.50 1003.98 1004.38 1004.78 1004.90 1005.14 1005.62 1005.82 1005.94 1006.30 1006.70 1006.90 1007.42 1007.62 1007.90 1008.30 1008.70 1009.02 1009.54 1009.98 1010.46 1010.90 1011.26 1011.50 1011.78 1012.02 1012.22 1012.38 1012.58 1012.74 1012.98
998.74 999.50 1000.22 1000.70 1001.02 1001.18 1001.46 1001.94 1002.14 1002.34 1002.50 1002.90 1003.34 1003.74 1004.14 1004.42 1004.86 1005.22 1005.38 1005.58 1005.74 1006.06 1006.38 1006.86 1007.18 1007.62 1008.02 1008.26 1008.74 1009.30 1009.86 1010.14 1010.54 1011.02 1011.46 1011.74 1011.94 1012.22 1012.34 1012.58 1012.74 1012.82
998.26 998.86 999.38 999.82 1000.10 1000.34 1000.70 1000.98 1001.30 1001.90 1002.26 1002.62 1002.90 1003.22 1003.78 1004.10 1004.42 1004.74 1005.14 1005.42 1005.50 1005.82 1006.18 1006.42 1006.86 1007.38 1007.82 1008.18 1008.62 1009.14 1009.46 1009.78 1010.22 1010.86 1011.34 1011.58 1011.82 1012.10 1012.46 1012.62 1012.66 1012.78
Thickness
5818 5815 5813 5810 5808 5806 5803 5800 5799 5797 5796 5797 5796 5796 5796 5795 5794 5791 5788 5787 5785 5783 5781 5779 5777 5775 5773 5771 5769 5767 5765 5763 5762 5761 5759 5757 5755 5754 5752 5750 5748 5746
5819 5817 5815 5812 5810 5808 5806 5803 5801 5799 5798 5799 5799 5799 5798 5797 5795 5793 5790 5788 5786 5783 5782 5780 5778 5776 5773 5771 5769 5766 5764 5763 5762 5761 5759 5756 5755 5753 5752 5750 5747 5745
5821 5819 5817 5814 5812 5810 5808 5806 5803 5801 5800 5800 5800 5800 5799 5798 5796 5794 5792 5789 5786 5784 5782 5781 5778 5776 5774 5771 5769 5767 5765 5764 5763 5762 5759 5757 5755 5753 5752 5750 5747 5744
5822 5821 5819 5816 5814 5812 5810 5808 5804 5803 5801 5800 5800 5801 5800 5799 5797 5794 5792 5789 5787 5784 5783 5781 5779 5777 5774 5772 5770 5768 5766 5765 5764 5762 5759 5757 5755 5753 5752 5750 5747 5744
5824 5822 5821 5818 5816 5814 5812 5809 5807 5805 5803 5801 5801 5802 5801 5799 5797 5795 5792 5790 5788 5785 5783 5781 5779 5777 5775 5773 5771 5769 5767 5765 5764 5761 5758 5756 5754 5753 5752 5749 5745 5743
5824 5823 5822 5819 5817 5815 5814 5812 5809 5807 5805 5802 5802 5802 5802 5800 5797 5795 5792 5790 5788 5786 5783 5781 5779 5778 5776 5775 5772 5770 5768 5766 5763 5760 5757 5755 5754 5752 5751 5748 5744 5741
5824 5822 5821 5819 5817 5816 5815 5814 5812 5810 5808 5804 5803 5803 5802 5800 5798 5796 5794 5791 5789 5787 5785 5782 5780 5779 5778 5776 5773 5770 5768 5765 5762 5759 5756 5755 5752 5750 5749 5746 5742 5739
5824 5822 5821 5818 5817 5816 5815 5815 5814 5813 5810 5806 5804 5804 5803 5801 5799 5797 5794 5792 5790 5787 5786 5784 5782 5781 5778 5776 5773 5770 5767 5765 5763 5760 5757 5754 5751 5749 5747 5744 5740 5737
5824 5823 5821 5818 5817 5817 5816 5816 5815 5814 5811 5808 5806 5804 5803 5801 5800 5797 5795 5792 5790 5787 5786 5785 5784 5782 5779 5776 5773 5770 5768 5766 5764 5760 5757 5754 5751 5748 5746 5742 5739 5735
5826 5824 5821 5818 5818 5818 5818 5817 5816 5815 5813 5810 5808 5805 5803 5801 5799 5798 5796 5792 5790 5788 5787 5785 5784 5782 5779 5776 5774 5772 5769 5767 5764 5761 5758 5755 5752 5749 5745 5742 5738 5734
5827 5824 5823 5821 5820 5819 5819 5817 5816 5815 5814 5812 5808 5806 5804 5801 5799 5797 5795 5793 5791 5790 5788 5786 5784 5782 5779 5777 5775 5773 5771 5768 5765 5762 5759 5756 5753 5749 5746 5742 5738 5735
5828 5827 5826 5824 5822 5821 5820 5818 5817 5816 5814 5812 5810 5807 5804 5801 5799 5797 5796 5794 5792 5790 5788 5786 5784 5782 5780 5778 5776 5774 5772 5769 5767 5763 5759 5757 5753 5749 5746 5743 5739 5736
5832 5831 5829 5827 5825 5823 5820 5818 5817 5816 5815 5813 5811 5808 5805 5802 5800 5798 5796 5795 5792 5790 5789 5787 5785 5783 5781 5779 5777 5776 5773 5770 5767 5763 5759 5756 5753 5750 5747 5745 5742 5738
5838 5835 5833 5830 5827 5824 5821 5818 5816 5815 5815 5812 5810 5808 5807 5805 5802 5799 5796 5794 5792 5790 5789 5787 5786 5784 5783 5781 5779 5777 5774 5771 5766 5763 5759 5756 5753 5750 5747 5745 5741 5738
5841 5838 5835 5831 5827 5825 5822 5819 5817 5815 5814 5812 5809 5809 5809 5807 5803 5800 5796 5794 5792 5791 5790 5789 5787 5787 5785 5783 5781 5778 5774 5770 5767 5764 5760 5756 5753 5750 5747 5744 5741 5738
5843 5839 5836 5832 5828 5826 5823 5820 5818 5814 5812 5809 5809 5810 5809 5806 5803 5801 5798 5796 5794 5792 5791 5790 5789 5789 5788 5786 5783 5779 5774 5771 5768 5764 5761 5757 5753 5750 5747 5743 5741 5738
5845 5842 5837 5834 5831 5827 5824 5821 5818 5814 5811 5809 5808 5808 5808 5807 5804 5802 5801 5799 5796 5794 5792 5792 5792 5792 5789 5786 5782 5780 5776 5772 5769 5765 5762 5758 5754 5751 5747 5743 5740 5736
5849 5844 5839 5836 5833 5830 5826 5822 5817 5813 5810 5808 5807 5807 5808 5808 5807 5805 5804 5801 5798 5796 5795 5794 5794 5793 5790 5786 5783 5780 5777 5774 5770 5766 5763 5759 5755 5751 5747 5741 5737 5734
5850 5845 5841 5839 5836 5832 5827 5822 5817 5813 5811 5809 5808 5809 5809 5809 5809 5807 5806 5803 5801 5798 5797 5797 5796 5794 5790 5787 5783 5780 5778 5774 5771 5768 5764 5760 5756 5751 5746 5739 5735 5733
5850 5847 5844 5841 5838 5833 5827 5822 5818 5815 5814 5812 5810 5810 5810 5810 5811 5810 5808 5806 5804 5802 5800 5799 5797 5795 5791 5788 5784 5781 5778 5775 5772 5769 5765 5761 5756 5752 5746 5742 5738 5734
5852 5849 5845 5842 5838 5832 5828 5824 5821 5819 5817 5815 5814 5814 5814 5814 5813 5812 5810 5808 5807 5804 5802 5800 5799 5796 5792 5788 5784 5781 5777 5774 5771 5768 5764 5759 5755 5751 5747 5743 5740 5736
5854 5850 5846 5842 5837 5832 5829 5827 5825 5823 5821 5819 5818 5817 5817 5816 5814 5813 5812 5810 5808 5806 5802 5800 5800 5797 5793 5788 5785 5781 5777 5773 5769 5766 5762 5757 5753 5750 5746 5743 5739 5735
5854 5850 5846 5842 5837 5833 5831 5830 5828 5826 5824 5822 5820 5819 5818 5817 5815 5815 5814 5811 5808 5806 5804 5801 5799 5797 5794 5789 5785 5781 5776 5771 5767 5763 5759 5755 5752 5749 5746 5741 5737 5733
5855 5850 5845 5841 5838 5836 5835 5833 5831 5829 5828 5827 5824 5822 5820 5819 5817 5814 5813 5812 5810 5808 5806 5802 5800 5797 5793 5789 5785 5780 5775 5771 5766 5762 5757 5753 5750 5746 5742 5739 5735 5731
5856 5851 5845 5842 5841 5840 5839 5836 5834 5832 5831 5829 5826 5824 5821 5818 5816 5813 5811 5812 5811 5809 5807 5803 5799 5796 5792 5788 5784 5778 5774 5770 5765 5760 5755 5750 5747 5743 5739 5735 5732 5728
5857 5853 5848 5845 5845 5844 5842 5839 5836 5834 5831 5828 5826 5824 5820 5817 5815 5813 5811 5810 5809 5807 5805 5802 5799 5794 5789 5786 5782 5777 5773 5769 5764 5758 5753 5748 5744 5740 5735 5731 5728 5725